CW5766 Weather Reports


Display with metric or nautical units.
time (UTC)temp
F
wind
direction
speed
MPH
gust
MPH
rain 1hr
in
rain 24hr
in
rain mn
in
humidity
%
barometer
mb
20260508132343 52 294 1.0 4.0 0.00 0.00 0.00 85 998.9
20260508131856 52 292 0.0 4.0 0.00 0.00 0.00 86 998.9
20260508131346 52 313 1.0 4.0 0.00 0.00 0.00 89 999.0
20260508130823 51 313 0.0 6.0 0.00 0.00 0.00 91 999.1
20260508130333 51 312 2.0 6.0 0.00 0.00 0.00 91 999.1
20260508125830 51 315 1.0 4.0 0.00 0.00 0.00 95 999.1
20260508125342 50 315 0.0 6.0 0.00 0.00 0.00 100 999.1
20260508124855 50 316 2.0 6.0 0.00 0.00 0.00 100 999.1
20260508124328 49 316 0.0 2.0 0.00 0.00 0.00 100 999.0
20260508123823 48 316 0.0 4.0 0.00 0.00 0.00 100 999.0
20260508123337 48 316 0.0 6.0 0.00 0.00 0.00 100 999.0
20260508122851 48 316 1.0 6.0 0.00 0.00 0.00 100 999.0
20260508122324 47 294 0.0 4.0 0.00 0.00 0.00 100 999.2
20260508121908 47 294 1.0 4.0 0.00 0.00 0.00 100 999.2
20260508121341 47 294 0.0 4.0 0.00 0.00 0.00 100 999.2
20260508120836 47 294 0.0 4.0 0.00 0.00 0.00 100 999.1
20260508120348 48 294 0.0 2.0 0.00 0.00 0.00 100 999.1
20260508115824 47 294 0.0 2.0 0.00 0.00 0.00 100 999.1
20260508115340 47 294 0.0 6.0 0.00 0.00 0.00 100 999.1
20260508114856 47 289 1.0 7.0 0.00 0.00 0.00 100 999.1
20260508114326 47 295 0.0 7.0 0.00 0.00 0.00 100 999.1
20260508113819 46 285 2.0 6.0 0.00 0.00 0.00 100 999.1
20260508113403 46 282 3.0 6.0 0.00 0.00 0.00 100 999.1
20260508112905 46 257 0.0 0.0 0.00 0.00 0.00 100 999.1
20260508020821 49 256 0.0 0.0 0.01 0.00 0.95 100 999.5
20260508020335 49 256 0.0 0.0 0.01 0.00 0.95 100 999.5
20260508015828 49 256 0.0 0.0 0.01 0.00 0.95 100 999.5
20260508015342 49 256 0.0 0.0 0.01 0.00 0.95 100 999.6
20260508014859 49 256 0.0 0.0 0.01 0.00 0.95 100 999.6
20260508014333 49 256 0.0 0.0 0.02 0.00 0.95 100 999.6
20260508013825 49 256 0.0 0.0 0.02 0.00 0.95 100 999.7
20260508013339 49 256 0.0 0.0 0.02 0.00 0.95 100 999.7
20260508012856 49 256 0.0 0.0 0.02 0.00 0.95 100 999.7
20260508012331 49 256 0.0 0.0 0.01 0.00 0.94 100 999.6
20260508011846 50 256 0.0 0.0 0.01 0.00 0.94 100 999.6
20260508011338 50 256 0.0 0.0 0.01 0.00 0.94 100 999.6
20260508010831 50 256 0.0 0.0 0.02 0.00 0.94 100 999.3
20260508010326 50 256 0.0 0.0 0.02 0.00 0.94 100 999.3
20260508005839 50 256 0.0 0.0 0.02 0.00 0.94 100 999.3
20260508005352 50 256 0.0 0.0 0.02 0.00 0.94 100 999.1
20260508004846 50 256 0.0 0.0 0.02 0.00 0.94 100 999.1
20260508004339 50 256 0.0 0.0 0.01 0.00 0.93 100 999.1
20260508003854 50 256 0.0 0.0 0.02 0.00 0.93 100 998.9
20260508003329 50 256 0.0 0.0 0.02 0.00 0.93 100 998.9
20260508002823 51 256 0.0 0.0 0.02 0.00 0.93 100 998.9
20260508002331 51 256 0.0 0.0 0.02 0.00 0.93 100 998.6
20260508001846 51 256 0.0 0.0 0.02 0.00 0.93 100 998.6
20260508001337 51 256 0.0 0.0 0.02 0.00 0.93 100 998.6
20260508000852 51 256 0.0 0.0 0.02 0.00 0.93 100 998.7
20260508000322 51 256 0.0 0.0 0.01 0.00 0.92 100 998.7
20260507235837 52 256 0.0 0.0 0.02 0.00 0.92 100 998.7
20260507235331 52 256 0.0 0.0 0.02 0.00 0.92 100 998.7
20260507234845 52 256 0.0 1.0 0.02 0.00 0.92 100 998.7
20260507234338 52 256 0.0 1.0 0.02 0.00 0.92 100 998.7
20260507233830 52 256 0.0 0.0 0.02 0.00 0.91 100 998.7
20260507233344 53 256 0.0 0.0 0.02 0.00 0.91 100 998.7
20260507232835 53 256 0.0 0.0 0.02 0.00 0.91 100 998.7
20260507232329 53 256 0.0 0.0 0.02 0.00 0.91 100 998.6
20260507231845 53 256 0.0 1.0 0.02 0.00 0.91 100 998.6
20260507231336 53 256 0.0 4.0 0.03 0.00 0.91 100 998.6
20260507230830 53 256 0.0 4.0 0.03 0.00 0.91 100 998.4
20260507230323 53 219 0.0 1.0 0.03 0.00 0.91 100 998.4
20260507225836 53 217 0.0 0.0 0.03 0.00 0.90 100 998.4
20260507225330 53 217 0.0 0.0 0.03 0.00 0.90 100 998.4
20260507224928 53 217 0.0 0.0 0.03 0.00 0.90 100 998.4
20260507224340 53 217 0.0 0.0 0.03 0.00 0.90 100 998.4
20260507223834 53 217 0.0 0.0 0.03 0.00 0.89 100 998.4
20260507223325 53 217 0.0 0.0 0.03 0.00 0.89 100 998.4
20260507222841 53 217 0.0 0.0 0.04 0.00 0.89 100 998.4
20260507222335 53 217 0.0 0.0 0.04 0.00 0.89 100 998.4
20260507221850 53 217 0.0 0.0 0.04 0.00 0.89 100 998.4
20260507221321 53 217 0.0 0.0 0.03 0.00 0.88 100 998.4
20260507220901 53 217 0.0 0.0 0.03 0.00 0.88 100 998.6
20260507220334 52 217 0.0 1.0 0.04 0.00 0.88 100 998.6
20260507215828 52 217 0.0 4.0 0.03 0.00 0.87 100 998.6
20260507215322 52 217 0.0 4.0 0.04 0.00 0.87 100 998.4
20260507214905 53 217 1.0 4.0 0.04 0.00 0.87 100 998.4
20260507214337 53 217 0.0 2.0 0.04 0.00 0.87 100 998.4
20260507213831 53 217 0.0 2.0 0.04 0.00 0.86 100 998.4
20260507213325 53 219 0.0 4.0 0.04 0.00 0.86 100 998.4
20260507212837 53 217 0.0 4.0 0.05 0.00 0.86 100 998.4
20260507212331 53 217 0.0 4.0 0.04 0.00 0.85 100 998.4
20260507211847 52 217 1.0 4.0 0.05 0.00 0.85 100 998.4
20260507211342 52 217 0.0 4.0 0.05 0.00 0.85 100 998.4
20260507210834 52 217 0.0 4.0 0.06 0.00 0.85 100 998.4
20260507210327 52 223 0.0 4.0 0.05 0.00 0.84 100 998.4
20260507205822 52 226 2.0 4.0 0.05 0.00 0.84 100 998.4
20260507205332 52 226 1.0 4.0 0.05 0.00 0.83 100 998.6
20260507204847 51 226 1.0 6.0 0.06 0.00 0.83 100 998.6
20260507204343 51 226 2.0 6.0 0.06 0.00 0.83 100 998.6
20260507203856 51 230 0.0 6.0 0.05 0.00 0.82 100 998.5
20260507203328 51 160 3.0 4.0 0.06 0.00 0.82 100 998.5
20260507202843 52 154 0.0 4.0 0.06 0.00 0.81 100 998.5
20260507202336 52 154 2.0 4.0 0.06 0.00 0.81 100 998.5
20260507201918 52 154 2.0 6.0 0.06 0.00 0.80 100 998.5
20260507201331 52 210 1.0 6.0 0.07 0.00 0.80 100 998.5
20260507200825 52 216 0.0 4.0 0.06 0.00 0.79 100 998.5
20260507200338 52 215 1.0 4.0 0.32 0.00 0.79 100 998.5
20260507195830 52 213 1.0 4.0 0.32 0.00 0.79 100 998.5
20260507195345 51 213 1.0 7.0 0.31 0.00 0.78 100 998.5
20260507194859 51 212 1.0 7.0 0.31 0.00 0.78 100 998.5
20260507194332 51 223 0.0 4.0 0.30 0.00 0.77 100 998.5
20260507193826 51 223 2.0 6.0 0.30 0.00 0.77 100 998.9
20260507193338 51 206 1.0 6.0 0.29 0.00 0.76 100 998.9
20260507192831 51 224 0.0 4.0 0.28 0.00 0.75 100 998.9
20260507192345 50 224 2.0 7.0 0.28 0.00 0.75 100 998.9
20260507191857 50 213 3.0 7.0 0.27 0.00 0.74 100 998.9
20260507191327 50 220 2.0 8.0 0.26 0.00 0.73 100 998.9
20260507190842 50 230 4.0 8.0 0.26 0.00 0.73 100 998.9
20260507190358 50 205 0.0 0.0 0.25 0.00 0.72 100 998.9
20260507163335 49 110 1.0 4.0 0.13 0.00 0.46 100 999.9
20260507162826 48 110 0.0 0.0 0.14 0.00 0.45 100 999.9
20260507162343 48 110 0.0 2.0 0.14 0.00 0.44 100 1000.0
20260507161922 48 110 0.0 4.0 0.14 0.00 0.43 100 1000.0
20260507161332 48 109 0.0 6.0 0.13 0.00 0.41 100 999.9
20260507160827 48 110 2.0 7.0 0.13 0.00 0.40 100 1000.9
20260507160402 48 141 0.0 7.0 0.12 0.00 0.39 100 1000.9
20260507155856 48 198 0.0 2.0 0.12 0.00 0.38 100 1000.9
20260507155346 48 198 0.0 7.0 0.11 0.00 0.37 100 1001.0
20260507154901 48 196 1.0 8.0 0.11 0.00 0.36 100 1001.0
20260507154354 48 253 3.0 8.0 0.11 0.00 0.35 100 1001.0
20260507153826 48 232 0.0 8.0 0.10 0.00 0.34 100 1001.0
20260507153337 49 232 3.0 8.0 0.09 0.00 0.33 100 1001.0
20260507152850 49 250 1.0 9.0 0.09 0.00 0.32 100 1001.0
20260507152322 49 251 3.0 11.0 0.08 0.00 0.30 100 1001.3
20260507151902 50 263 6.0 11.0 0.07 0.00 0.29 100 1001.3
20260507151356 50 292 5.0 11.0 0.06 0.00 0.28 100 1001.3
20260507150832 50 241 5.0 15.0 0.05 0.00 0.27 100 1001.4
20260507150344 50 240 6.0 15.0 0.06 0.00 0.27 100 1001.4
20260507145836 51 253 4.0 10.0 0.06 0.00 0.26 100 1001.4
20260507145329 51 189 3.0 9.0 0.06 0.00 0.26 100 1001.8
20260507144841 51 256 4.0 10.0 0.05 0.00 0.25 100 1001.8
20260507144338 51 223 4.0 13.0 0.05 0.00 0.25 100 1001.8
20260507143831 51 270 6.0 13.0 0.04 0.00 0.24 100 1001.6
20260507143328 51 219 6.0 11.0 0.04 0.00 0.24 100 1001.6
20260507142822 51 219 6.0 10.0 0.03 0.00 0.23 100 1001.6
20260507142333 51 294 8.0 14.0 0.02 0.00 0.22 100 1001.6
20260507141850 51 256 8.0 14.0 0.02 0.00 0.22 100 1001.6
20260507141323 51 212 6.0 15.0 0.02 0.00 0.22 100 1001.6
20260507140837 52 212 8.0 15.0 0.02 0.00 0.22 100 1001.6
20260507140330 52 172 6.0 11.0 0.01 0.00 0.21 100 1001.6
20260507135822 52 223 6.0 11.0 0.00 0.00 0.20 100 1001.6
20260507135336 52 271 6.0 17.0 0.00 0.00 0.20 100 1002.0
20260507134917 52 272 7.0 17.0 0.00 0.00 0.20 100 1002.0
20260507134351 52 217 7.0 17.0 0.00 0.00 0.20 100 1002.0
20260507133824 52 247 7.0 17.0 0.00 0.00 0.20 100 1002.1
20260507133337 52 275 4.0 15.0 0.00 0.00 0.20 100 1002.1
20260507132832 52 263 5.0 13.0 0.00 0.00 0.20 100 1002.1